GW5385 Weather Reports


time (UTC)temp
C
wind
direction
speed
KPH
gust
KPH
rain 1hr
cm
rain 24hr
cm
rain mn
cm
humidity
%
barometer
mb
20260901220032 28 141 8.0 14.5 0.00 0.00 0.00 25 1012.3
20260901214529 28 134 8.0 16.1 0.00 0.00 0.00 25 1012.4
20260901213028 27 137 6.4 14.5 0.00 0.00 0.00 26 1012.5
20260901211527 27 155 4.8 16.1 0.00 0.00 0.00 26 1012.8
20260901210021 27 206 9.7 14.5 0.00 0.00 0.00 26 1013.0
20260901204518 27 182 8.0 14.5 0.00 0.00 0.00 27 1013.1
20260901203015 27 159 8.0 19.3 0.00 0.00 0.00 26 1013.2
20260901201512 27 195 8.0 17.7 0.00 0.00 0.00 27 1013.4
20260901200012 26 180 6.4 16.1 0.00 0.00 0.00 28 1013.6
20260901194512 26 154 9.7 17.7 0.00 0.00 0.00 28 1013.7
20260901193003 26 161 6.4 22.5 0.00 0.00 0.00 29 1013.9
20260901191606 26 134 6.4 16.1 0.00 0.00 0.00 30 1014.0
20260901190112 25 186 8.0 17.7 0.00 0.00 0.00 30 1014.2
20260901184554 25 161 11.3 24.1 0.00 0.00 0.00 30 1014.4
20260901183051 25 146 9.7 17.7 0.00 0.00 0.00 31 1014.6
20260901181550 24 200 8.0 20.9 0.00 0.00 0.00 34 1014.7
20260901180042 23 173 9.7 20.9 0.00 0.00 0.00 34 1014.7
20260901174540 23 201 8.0 19.3 0.00 0.00 0.00 36 1015.0
20260901173036 22 129 6.4 16.1 0.00 0.00 0.00 37 1015.1
20260901171538 22 155 8.0 17.7 0.00 0.00 0.00 38 1015.3
20260901170027 21 124 9.7 19.3 0.00 0.00 0.00 39 1015.3
20260901164625 20 144 8.0 14.5 0.00 0.00 0.00 41 1015.5
20260901163054 20 127 6.4 17.7 0.00 0.00 0.00 41 1015.5
20260901161550 20 141 4.8 16.1 0.00 0.00 0.00 43 1015.6
20260901160046 19 154 11.3 20.9 0.00 0.00 0.00 44 1015.7
20260901154543 18 161 6.4 14.5 0.00 0.00 0.00 45 1015.6
20260901153040 18 179 3.2 12.9 0.00 0.00 0.00 47 1015.9
20260901151542 18 141 3.2 9.7 0.00 0.00 0.00 49 1016.1
20260901150035 17 184 3.2 8.0 0.00 0.00 0.00 50 1016.2
20260901144530 16 70 1.6 6.4 0.00 0.00 0.00 54 1016.0
20260901143028 15 49 0.0 3.2 0.00 0.00 0.00 63 1016.1
20260901141521 12 35 0.0 4.8 0.00 0.00 0.00 71 1016.0
20260901140054 12 39 1.6 4.8 0.00 0.00 0.00 73 1015.8
20260901134543 10 343 0.0 0.0 0.00 0.00 0.00 78 1015.6
20260901133036 8 285 0.0 0.0 0.00 0.00 0.00 79 1015.6
20260901131536 7 285 0.0 0.0 0.00 0.00 0.00 79 1015.7
20260901130033 7 285 0.0 0.0 0.00 0.00 0.00 80 1015.7
20260901124534 7 279 0.0 0.0 0.00 0.00 0.00 81 1015.8
20260901123004 6 287 0.0 0.0 0.00 0.00 0.00 81 1015.8
20260901121501 6 287 0.0 0.0 0.00 0.00 0.00 81 1015.8
20260901120058 6 287 0.0 0.0 0.00 0.00 0.00 81 1015.7
20260901114555 6 287 0.0 0.0 0.00 0.00 0.00 80 1015.8
20260901113101 7 287 0.0 0.0 0.00 0.00 0.00 80 1016.0
20260901111552 7 283 0.0 0.0 0.00 0.00 0.00 79 1016.0
20260901110049 7 286 0.0 0.0 0.00 0.00 0.00 80 1015.9
20260901104557 7 286 0.0 0.0 0.00 0.00 0.00 80 1016.0
20260901103046 6 286 0.0 0.0 0.00 0.00 0.00 81 1016.2
20260901101547 7 286 0.0 0.0 0.00 0.00 0.00 80 1016.2
20260901100058 6 286 0.0 0.0 0.00 0.00 0.00 80 1016.2
20260901094539 7 286 0.0 0.0 0.00 0.00 0.00 79 1016.2
20260901093038 7 258 0.0 0.0 0.00 0.00 0.00 78 1016.2
20260901091539 7 251 0.0 0.0 0.00 0.00 0.00 78 1016.2
20260901090012 7 251 0.0 0.0 0.00 0.00 0.00 77 1016.2
20260901084506 7 246 0.0 0.0 0.00 0.00 0.00 77 1016.2
20260901083002 7 246 0.0 0.0 0.00 0.00 0.00 74 1016.2
20260901081603 8 246 0.0 0.0 0.00 0.00 0.00 75 1016.3
20260901080100 7 264 0.0 0.0 0.00 0.00 0.00 76 1016.4
20260901074557 7 285 0.0 0.0 0.00 0.00 0.00 75 1016.5
20260901073054 7 285 0.0 0.0 0.00 0.00 0.00 76 1016.6
20260901071553 7 251 0.0 0.0 0.00 0.00 0.00 76 1016.6
20260901070057 7 295 0.0 0.0 0.00 0.00 0.00 76 1016.6
20260901064550 7 295 0.0 0.0 0.00 0.00 0.00 76 1016.7
20260901063046 7 295 0.0 0.0 0.00 0.00 0.00 79 1016.7
20260901061543 7 295 0.0 0.0 0.00 0.00 0.00 77 1016.6
20260901060042 8 295 0.0 0.0 0.00 0.00 0.00 73 1016.8
20260901054541 8 295 0.0 0.0 0.00 0.00 0.00 74 1016.8
20260901053035 8 296 0.0 0.0 0.00 0.00 0.00 73 1016.9
20260901051541 8 298 0.0 0.0 0.00 0.00 0.00 71 1016.9
20260901050034 8 287 0.0 0.0 0.00 0.00 0.00 71 1016.9
20260901044540 9 279 0.0 0.0 0.00 0.00 0.00 70 1016.9
20260901043031 9 262 0.0 0.0 0.00 0.00 0.00 69 1016.9
20260901041530 9 215 0.0 0.0 0.00 0.00 0.00 70 1016.9
20260901040035 9 176 0.0 0.0 0.00 0.00 0.00 70 1016.7
20260901034529 10 176 0.0 0.0 0.00 0.00 0.00 68 1016.6
20260901033027 11 176 0.0 0.0 0.00 0.00 0.00 64 1016.4
20260901031526 11 176 0.0 0.0 0.00 0.00 0.00 63 1016.3
20260901030025 13 176 0.0 0.0 0.00 0.00 0.00 57 1016.2
20260901024528 15 176 0.0 0.0 0.00 0.00 0.00 53 1016.0
20260901023023 16 176 0.0 0.0 0.00 0.00 0.00 46 1016.0
20260901021521 17 136 0.0 1.6 0.00 0.00 0.00 43 1016.0
20260901020021 19 162 0.0 1.6 0.00 0.00 0.00 41 1016.0
20260901014520 20 162 0.0 1.6 0.00 0.00 0.00 38 1016.0
20260901013021 21 162 0.0 4.8 0.00 0.00 0.00 36 1016.1
20260901011520 22 179 0.0 3.2 0.00 0.00 0.00 35 1016.1
20260901010017 22 255 0.0 0.0 0.00 0.00 0.00 33 1016.3
20260901004530 23 240 0.0 3.2 0.00 0.00 0.00 32 1016.4
20260901003020 23 326 0.0 3.2 0.00 0.00 0.00 32 1016.4
20260901001523 24 152 1.6 4.8 0.00 0.00 0.00 31 1016.5
20260901000015 23 191 1.6 14.5 0.00 0.00 0.00 33 1016.5
20260831234512 24 292 1.6 6.4 0.00 0.00 0.00 31 1016.5
20260831233009 24 228 0.0 11.3 0.00 0.00 0.00 32 1016.5
20260831231505 24 243 3.2 9.7 0.00 0.00 0.00 32 1016.6
20260831230005 24 254 1.6 9.7 0.00 0.00 0.00 33 1016.7
20260831224503 23 248 3.2 6.4 0.00 0.00 0.00 34 1016.8
20260831223003 24 199 1.6 6.4 0.00 0.00 0.00 34 1016.9
20260831221557 23 249 3.2 9.7 0.00 0.00 0.00 35 1016.9